479  
FPUS82 KCHS 190027  
OPUCHS  
 
TEST   
..KCHS/KSAV GATEWAY OBSERVATIONS
 
TEST  
NATIONAL WEATHER SERVICE CHARLESTON SC  
800 PM EDT SAT AUG 18 2018  
 
NOTE: "FAIR" INDICATES FEW OR NO CLOUDS BELOW 12,000 FEET WITH NO  
SIGNIFICANT WEATHER AND/OR OBSTRUCTIONS TO VISIBILITY.  
 
SCZ050-WAZ558-NCZ071-TXZ119-213-PAZ071-DCZ001-FLZ074-172-MI076-  
NYZ176-178-MAZ016-IL014-TNZ027-NJZ106-GAZ044-MD014-190100-  
   
..GATEWAY OBSERVATIONS FOR CHARLESTON INTERNATIONAL
 
 
 
CITY SKY/WX TMP DP RH WIND PRES REMARKS  
CHAS AIRPORT MOCLDY 83 76 79 SW14 29.99R THUNDER HX 91  
6HR MIN TEMP: 83; 6HR MAX TEMP: 92;  
 
SEATTLE MOSUNNY 80 50 34 NW10 30.14F  
6HR MIN TEMP: 68; 6HR MAX TEMP: 81;  
 
CHARLOTTE MOCLDY 75 74 96 S5 29.93S  
6HR MIN TEMP: 73; 6HR MAX TEMP: 88; 6HR PCP: 0.79;  
 
DALLAS DFW TSTM 83 71 67 S14G21 29.87R  
6HR MIN TEMP: 83; 6HR MAX TEMP: 101; 6HR PCP: 0.01;  
 
DALLAS LOVE TSTM 80 76 87 N29G35 29.89R FOG  
6HR MIN TEMP: 88; 6HR MAX TEMP: 103; 6HR PCP: TRACE;  
 
PHILLADELPHIA CLOUDY 79 70 74 W8 29.82R  
6HR MIN TEMP: 76; 6HR MAX TEMP: 88; 6HR PCP: 0.02;  
 
WASH NATIONAL CLOUDY 85 68 56 W8 29.83S  
6HR MIN TEMP: 85; 6HR MAX TEMP: 90;  
 
BALTIMORE MOCLDY 80 71 74 NW5 29.83R  
6HR MIN TEMP: 80; 6HR MAX TEMP: 88;  
 
MIAMI FAIR 85 76 74 E9 30.03S HX 94  
6HR MIN TEMP: 85; 6HR MAX TEMP: 90;  
 
DETROIT CLOUDY 77 68 73 S5 29.95R  
6HR MIN TEMP: 77; 6HR MAX TEMP: 85; 6HR PCP: 0.01;  
 
NEWARK CLOUDY 74 71 91 NE8 29.82R  
6HR MIN TEMP: 74; 6HR MAX TEMP: 90; 6HR PCP: 0.07;  
 
LAGUARDIA LGT RAIN 76 71 85 N6 29.81R  
6HR MIN TEMP: 76; 6HR MAX TEMP: 90; 6HR PCP: 0.01;  
 
J F K LGT RAIN 76 72 87 N13 29.83R  
6HR MIN TEMP: 76; 6HR MAX TEMP: 86; 6HR PCP: 0.01;  
 
BOSTON LOGAN CLOUDY 72 68 87 NE20G26 29.84R  
6HR MIN TEMP: 74; 6HR MAX TEMP: 88; 6HR PCP: 0.07;  
 
FT. LAUDERDALE FAIR 84 78 82 E9 30.03S HX 95  
6HR MIN TEMP: 84; 6HR MAX TEMP: 88;  
 
CHICAGO O'HARE FAIR 77 65 66 NE9 29.98F  
6HR MIN TEMP: 77; 6HR MAX TEMP: 80;  
 
CHICAGO MIDWAY FAIR 77 67 71 N10 29.97F  
6HR MIN TEMP: 77; 6HR MAX TEMP: 82;  
 
HOUSTON BUSH FAIR 85 75 72 S6 29.91R HX 93  
6HR MIN TEMP: 85; 6HR MAX TEMP: 97;  
 
HOUSTON HOBBY PTSUNNY 90 76 63 S12 29.91R HX 101  
6HR MIN TEMP: 90; 6HR MAX TEMP: 97;  
 
NASHVILLE MOCLDY 78 72 81 S5 29.92F  
6HR MIN TEMP: 72; 6HR MAX TEMP: 88; 6HR PCP: 0.88;  
 
ATLANTA CLOUDY 74 71 91 SW6 30.01R  
6HR MIN TEMP: 73; 6HR MAX TEMP: 88; 6HR PCP: 1.39;  
 

 
 
GAZ044-118-TXZ119-213-NCZ071-DCZ001-MDZ014-506-PAZ021-071-NJZ106-  
NYZ176-178-MAZ106-OHZ011-021-055-MIZ076-KYZ091-ILZ014-INZ047-  
MNZ060-ONZ431-190100-  
   
..GATEWAY OBSERVATIONS FOR SAVANNAH INTERNATIONAL
 
 
 
CITY SKY/WX TMP DP RH WIND PRES REMARKS  
SAVANNAH ARPT MOCLDY 85 75 72 S14 30.00R HX 93  
6HR MIN TEMP: 85; 6HR MAX TEMP: 93;  
 
ATLANTA CLOUDY 74 71 91 SW6 30.01R  
6HR MIN TEMP: 73; 6HR MAX TEMP: 88; 6HR PCP: 1.39;  
 
CHARLOTTE MOCLDY 75 74 96 S5 29.93S  
6HR MIN TEMP: 73; 6HR MAX TEMP: 88; 6HR PCP: 0.79;  
 
DALLAS DFW TSTM 83 71 67 S14G21 29.87R  
6HR MIN TEMP: 83; 6HR MAX TEMP: 101; 6HR PCP: 0.01;  
 
HOUSTON BUSH FAIR 85 75 72 S6 29.91R HX 93  
6HR MIN TEMP: 85; 6HR MAX TEMP: 97;  
 
WASH NATIONAL CLOUDY 85 68 56 W8 29.83S  
6HR MIN TEMP: 85; 6HR MAX TEMP: 90;  
 
WASH DULLES MOCLDY 76 69 79 W6 29.85S  
6HR MIN TEMP: 76; 6HR MAX TEMP: 84; 6HR PCP: TRACE;  
 
BALTIMORE MOCLDY 80 71 74 NW5 29.83R  
6HR MIN TEMP: 80; 6HR MAX TEMP: 88;  
 
PHILADELPHIA CLOUDY 79 70 74 W8 29.82R  
6HR MIN TEMP: 76; 6HR MAX TEMP: 88; 6HR PCP: 0.02;  
 
NEWARK CLOUDY 74 71 91 NE8 29.82R  
6HR MIN TEMP: 74; 6HR MAX TEMP: 90; 6HR PCP: 0.07;  
 
LAGUARDIA LGT RAIN 76 71 85 N6 29.81R  
6HR MIN TEMP: 76; 6HR MAX TEMP: 90; 6HR PCP: 0.01;  
 
J F K LGT RAIN 76 72 87 N13 29.83R  
6HR MIN TEMP: 76; 6HR MAX TEMP: 86; 6HR PCP: 0.01;  
 
BOSTON CLOUDY 72 68 87 NE20G26 29.84R  
6HR MIN TEMP: 74; 6HR MAX TEMP: 88; 6HR PCP: 0.07;  
 
PITTSBURG FAIR 76 62 62 N8 29.91R  
6HR MIN TEMP: 76; 6HR MAX TEMP: 82;  
 
AKRON FAIR 75 57 53 NE8 29.95R  
6HR MIN TEMP: 75; 6HR MAX TEMP: 85;  
 
CLEVELAND MOCLDY 75 65 70 NE13 29.97R  
6HR MIN TEMP: 75; 6HR MAX TEMP: 81;  
 
CINCINNATI MOCLDY 79 69 71 N8 29.92R  
6HR MIN TEMP: 79; 6HR MAX TEMP: 85; 6HR PCP: TRACE;  
 
COLUMBUS FAIR 74 69 85 N7 29.91S  
DETROIT CLOUDY 77 68 73 S5 29.95R  
6HR MIN TEMP: 77; 6HR MAX TEMP: 85; 6HR PCP: 0.01;  
 
CHICAGO O'HARE FAIR 77 65 66 NE9 29.98F  
6HR MIN TEMP: 77; 6HR MAX TEMP: 80;  
 
MINNEAPOLIS PTSUNNY 82 64 54 SE8 29.98F  
6HR MIN TEMP: 82; 6HR MAX TEMP: 86;  
 
INDIANAPOLIS MOCLDY 79 67 66 NE8 29.93S  
6HR MIN TEMP: 79; 6HR MAX TEMP: 83;  
 
TORONTO CANADA CLOUDY 72 63 73 S3 29.96R  
 

 
 
 
CLICK HERE TO GO TO PREVIOUS BULLETINS.

The Nexlab SC Page
The Nexlab GA Page Main Text Page